Location: Newark
(33.4453°N, 112.0669°W)
Time: 15:57:53
(UTC+00:00)

S-56A Canister/Altair - Visible Passes

Search period start: 19 February 2020 00:00
Search period end: 29 February 2020 00:00
Orbit: 633 x 2499 km, 38.9° (Epoch: 18 February)

Date Brightness Start Highest point End Pass type
(mag) Time Alt. Az. Time Alt. Az. Time Alt. Az.
19 Feb 9.6 01:41:44 10° WNW 01:53:12 57° SW 02:00:46 10° SE visible
19 Feb 10.8 03:52:39 10° WSW 03:55:50 12° SW 03:58:39 10° SSW visible
20 Feb 10.7 03:17:35 10° W 03:23:15 17° SW 03:27:52 10° SSW visible
21 Feb 10.7 02:43:04 10° W 02:50:38 22° SW 02:56:26 10° S visible
22 Feb 10.7 02:08:47 10° WNW 02:17:56 28° SW 02:24:41 10° S visible
23 Feb 10.7 01:34:37 10° WNW 01:45:08 34° SW 01:52:43 10° SSE visible
26 Feb 11.5 02:04:08 10° W 02:09:17 14° WSW 02:13:45 10° SSW visible
